Regional Weather Roundup
Issued by NWS Green Bay, WI

Home | Current Version | Previous Version | Graphics & Text | Print | Product List | Glossary Off
Versions: 1 2 3 4 5 6 7 8 9 10 11 12 13 14 15 16 17 18 19 20 21 22 23 24 25 26 27 28 29 30 31 32 33 34 35 36 37 38 39 40 41 42 43 44 45 46 47 48 49 50

856
ASUS43 KGRB 290200
RWRGRB

NORTH-CENTRAL AND NORTHEAST WISCONSIN REGIONAL WEATHER ROUNDUP
NATIONAL WEATHER SERVICE GREEN BAY WI
900 PM CDT THU JUL 28 2016

WIZ005-009-010>012-018-019-290300-
NORTH CENTRAL WISCONSIN

CITY           SKY/WX    TMP DP  RH WIND       PRES   REMARKS
IRONWOOD       PTCLDY    61  52  72 SE3       30.07R
MANITOWISH WTR PTCLDY    60  55  81 N5        30.08R
ARBOR VITAE    NOT AVBL
EAGLE RIVER    NOT AVBL
LAND O LAKES   NOT AVBL
RHINELANDER    CLEAR     63  53  70 NE5       30.07R
PHILLIPS       CLEAR     64  56  77 NE9       30.06R
ANTIGO         NOT AVBL
TOMAHAWK       CLOUDY    65  54  68 NE6       30.06R
MERRILL        CLOUDY    66  64  91 NE5       30.04S
$$

WIZ013-073-290300-
NORTHEAST WISCONSIN

CITY           SKY/WX    TMP DP  RH WIND       PRES   REMARKS
IRON MOUNTAIN  CLOUDY    62  51  67 NE5       30.05R
MARINETTE        N/A    N/A N/A N/A MISG        N/A
$$

WIZ017-030-035>037-045-290300-
CENTRAL WISCONSIN

CITY           SKY/WX    TMP DP  RH WIND       PRES   REMARKS
MEDFORD        NOT AVBL
WAUSAU         CLOUDY    67  65  93 CALM      30.01R
MOSINEE        CLOUDY    66  63  88 NE5       30.04R
MARSHFIELD     CLOUDY    65  60  84 NE6       30.01S
WISC RAPIDS    CLOUDY    66  57  72 E8        30.02R
STEVENS POINT  NOT AVBL
WAUPACA        NOT AVBL
SHAWANO        NOT AVBL
CLINTONVILLE   CLOUDY    64  61  88 CALM      30.01R
WAUTOMA        CLOUDY    66  62  87 NE5         N/A
$$

WIZ038-039-048-051-290300-
FOX VALLEY

CITY           SKY/WX    TMP DP  RH WIND       PRES   REMARKS
NWS GREEN BAY  CLOUDY    66  65  96 NE7       29.99R
APPLETON       MOCLDY    68  55  64 NE10      29.97S
OSHKOSH        CLOUDY    69  57  65 NE8       29.98R
FOND DU LAC    CLOUDY    69  57  65 NE9       29.98R
$$

WIZ022-050-052-290300-
EAST CENTRAL WISCONSIN

CITY           SKY/WX    TMP DP  RH WIND       PRES   REMARKS
EPHRAIM        CLOUDY    67  58  71 N12G20    30.00S
WASHINGTON ISL NOT AVBL
STURGEON BAY   CLOUDY    68  59  73 N10       30.01R
MANITOWOC      NOT AVBL
SHEBOYGAN      CLOUDY    66  57  72 N10       29.97R
$$

LMZ563-521-522-541>543-290300-
LAKESHORE

STATION/POSITION TIME  TEMP    WIND        PRES    VSBY  WAVE
                       AIR SEA DIR/SP/G                  HT/PER
                 (UTC) (F)     (DEG/KT/KT) (MB)    (MI)  (FT/S)
SHEBOYGAN LKSHOR 0100   62     350/ 15/ 16 1014.8R
KEWAUNEE LKSHORE 0100   66                   N/A
NORTHPORT PIER   0100   71      10/ 15/ 19 1015.9S
N MID LAKE BUOY  0050   71 70  360/ 19/ 23 1014.7          1/ 3
SISTER BAY LKSHO 0106   70      20/ 11/ 15   N/A
CHAMBERS ISLAND  0100   71     360/ 20/ 23 1015.6S
MENOMINEE LKSHOR 0100   71                   N/A
$$




USA.gov is the U.S. government's official web portal to all federal, state and local government web resources and services.